CORVUS BC2

Last updated on Sun Jun 21 2026 00:03:50 GMT+0000 (Coordinated Universal Time)

1 42846U 17042X 26171.44990433 .00002866 00000+0 19859-3 0 9997 2 42846 97.4078 332.6724 0014620 100.3566 259.9310 15.06316764487559
UTC large
Height (km)
Speed (km/s)
/
Latitude / Longitude
Inclination (degrees)
Orbital Period (minutes)
Azimuth
Elevation
Range (km)
Doppler Factor

Next 0 passes for location: London (51.5072 / 0.1276)

No passes found over London.
CORVUS BC2